This demonstration page uses our WeatherBlox Daily Observations layout. Learn more.

41.55636, -103.73856

Hourly Observations for May 13, 2019

Temp ( °F °C ) Dew Point ( °F °C ) Humidity (%) Winds ( mph kmh ) Pressure ( in mb ) Visibility ( mi km ) Precip ( " mm )
12:58 am 00:58 undefined 65 18.3 31 -0.7 28 28 ENE 8 13 29.8 1009 10 16.0934 0 0
1:58 am 01:58 undefined 58 14.5 29 -1.9 32 32 E 13 20 29.81 1010 10 16.0934 0 0
2:58 am 02:58 undefined 51 10.4 30 -1.3 44 44 SE 9 15 29.85 1011 10 16.0934 0 0
3:58 am 03:58 undefined 47 8.3 31 -0.4 55 55 S 10 17 29.88 1012 10 16.0934 0 0
4:58 am 04:58 undefined 45 7.2 32 -0.2 60 60 SSW 8 13 29.9 1012 10 16.0934 0 0
5:58 am 05:58 undefined 46 7.5 30 -1 55 55 SSW 10 17 29.87 1011 10 16.0934 0 0
6:58 am 06:58 undefined 45 7.1 30 -1.2 56 56 SSW 10 17 29.85 1011 10 16.0934 0 0
7:58 am 07:58 undefined 44 6.4 30 -0.9 60 60 SSW 9 15 29.85 1011 10 16.0934 0 0
8:58 am 08:58 undefined 43 5.9 30 -1.1 61 61 SSW 13 20 29.83 1010 10 16.0934 0 0
9:58 am 09:58 undefined 45 7.1 31 -0.7 58 58 SW 15 24 29.83 1010 10 16.0934 0 0
10:58 am 10:58 undefined 46 7.7 30 -0.9 55 55 SW 16 26 29.81 1010 10 16.0934 0 0
11:58 am 11:58 undefined 48 9.1 31 -0.7 51 51 SW 14 22 29.81 1010 10 16.0934 0 0
12:58 pm 12:58 undefined 52 11 36 2.2 55 55 W 9 15 29.82 1010 10 16.0934 0 0
1:58 pm 13:58 undefined 56 13.6 38 3.2 50 50 W 13 20 29.83 1010 10 16.0934 0 0
2:58 pm 14:58 undefined 63 17.1 37 3 39 39 WNW 9 15 29.85 1011 10 16.0934 0 0
3:58 pm 15:58 undefined 66 19.1 38 3.5 36 36 NNW 10 17 29.85 1011 10 16.0934 0 0
4:58 pm 16:58 undefined 69 20.7 36 2.4 30 30 NNW 8 13 29.85 1011 10 16.0934 0 0
5:58 pm 17:58 undefined 71 21.7 34 1 25 25 NNW 5 7 29.83 1010 10 16.0934 0 0
6:58 pm 18:58 undefined 73 22.7 34 1.3 24 24 W 3 6 29.82 1010 10 16.0934 0 0
7:58 pm 19:58 undefined 71 21.9 35 1.6 26 26 NW 13 20 29.83 1010 10 16.0934 0 0
8:58 pm 20:58 undefined 72 22.2 32 -0.2 23 23 W 12 19 29.83 1010 10 16.0934 0 0
9:58 pm 21:58 undefined 69 20.8 28 -2 22 22 NNW 21 33 29.83 1010 10 16.0934 0 0
11:58 pm 23:58 undefined 67 19.6 36 2.1 31 31 WNW 12 19 29.82 1010 10 16.0934 0 0

Powered by AerisWeather